N8AMF Weather Reports


time (UTC)temp
C
wind
direction
speed
KPH
gust
KPH
rain 1hr
cm
rain 24hr
cm
rain mn
cm
humidity
%
barometer
mb
20260510190248 14 349 4.8 14.5 0.00 0.05 0.05 39 1018.0
20260510185744 15 227 9.7 17.7 0.00 0.05 0.05 36 1017.9
20260510185244 14 330 3.2 19.3 0.00 0.05 0.05 40 1017.8
20260510184740 14 17 4.8 16.1 0.00 0.05 0.05 36 1017.7
20260510184237 14 359 6.4 12.9 0.00 0.05 0.05 38 1017.7
20260510183737 15 47 8.0 16.1 0.00 0.05 0.05 44 1017.8
20260510183232 15 67 8.0 12.9 0.00 0.05 0.05 36 1017.8
20260510182729 14 330 4.8 11.3 0.00 0.05 0.05 37 1017.5
20260510182224 15 352 6.4 11.3 0.00 0.05 0.05 35 1017.5
20260510181721 15 325 8.0 16.1 0.00 0.05 0.05 39 1017.4
20260510181219 15 353 6.4 12.9 0.00 0.05 0.05 39 1017.4
20260510180714 15 296 4.8 9.7 0.00 0.05 0.05 39 1017.4
20260510180212 14 220 3.2 11.3 0.00 0.05 0.05 39 1017.4
20260510175708 14 155 3.2 12.9 0.00 0.05 0.05 41 1017.3
20260510175204 14 353 8.0 11.3 0.00 0.05 0.05 39 1017.2
20260510174701 15 120 3.2 9.7 0.00 0.05 0.05 39 1017.3
20260510174159 15 69 4.8 8.0 0.00 0.05 0.05 43 1017.2
20260510173654 15 340 0.0 11.3 0.00 0.05 0.05 35 1017.2
20260510173151 15 213 3.2 12.9 0.00 0.05 0.05 36 1017.3
20260510172646 14 350 4.8 14.5 0.00 0.05 0.05 40 1017.4
20260510172143 15 201 3.2 11.3 0.00 0.05 0.05 38 1017.3
20260510171639 15 357 4.8 17.7 0.00 0.05 0.05 36 1017.4
20260510171137 14 56 8.0 17.7 0.00 0.05 0.05 36 1017.4
20260510170633 14 348 4.8 12.9 0.00 0.05 0.05 44 1017.5
20260510170130 15 333 4.8 11.3 0.00 0.05 0.05 39 1017.3
20260510165625 14 15 4.8 17.7 0.00 0.05 0.05 43 1017.2
20260510165121 15 246 1.6 16.1 0.00 0.05 0.05 32 1017.1
20260510164620 14 2 3.2 11.3 0.00 0.05 0.05 39 1017.0
20260510164116 15 206 4.8 14.5 0.00 0.05 0.05 31 1017.0
20260510163611 15 225 8.0 16.1 0.00 0.05 0.05 35 1017.0
20260510163108 14 237 4.8 14.5 0.00 0.05 0.05 35 1017.1
20260510162608 14 204 4.8 17.7 0.00 0.05 0.05 37 1017.1
20260510162104 15 203 3.2 17.7 0.00 0.05 0.05 35 1017.0
20260510161600 15 324 1.6 8.0 0.00 0.05 0.05 46 1017.0
20260510161058 14 5 8.0 11.3 0.00 0.05 0.05 45 1016.8
20260510160555 13 351 4.8 8.0 0.00 0.05 0.05 42 1016.7
20260510160054 13 16 3.2 6.4 0.00 0.05 0.05 52 1016.7
20260510155551 13 61 4.8 14.5 0.00 0.05 0.05 49 1016.8
20260510155047 13 49 6.4 14.5 0.00 0.05 0.05 47 1016.7
20260510154542 13 75 3.2 14.5 0.00 0.05 0.05 47 1016.5
20260510154038 13 17 4.8 8.0 0.00 0.05 0.05 42 1016.6
20260510153533 13 37 4.8 9.7 0.00 0.05 0.05 48 1016.5
20260510153031 13 283 4.8 8.0 0.00 0.05 0.05 46 1016.6
20260510152527 12 42 8.0 11.3 0.00 0.05 0.05 52 1016.6
20260510152024 12 67 3.2 9.7 0.00 0.05 0.05 47 1016.7
20260510151520 12 36 3.2 14.5 0.00 0.05 0.05 46 1016.6
20260510151018 12 358 6.4 16.1 0.00 0.05 0.05 51 1016.6
20260510150513 12 65 9.7 11.3 0.00 0.05 0.05 49 1016.4
20260510150009 13 42 1.6 9.7 0.00 0.05 0.05 47 1016.3
20260510145506 12 37 3.2 8.0 0.00 0.05 0.05 53 1016.3
20260510145002 12 64 8.0 14.5 0.00 0.05 0.05 48 1016.5
20260510144459 12 91 4.8 11.3 0.00 0.05 0.05 50 1016.4
20260510143955 12 45 4.8 8.0 0.00 0.05 0.05 52 1016.3
20260510143451 12 98 3.2 9.7 0.00 0.05 0.05 47 1016.3
20260510142947 12 355 6.4 17.7 0.00 0.05 0.05 48 1016.3
20260510142444 12 71 11.3 11.3 0.00 0.05 0.05 50 1016.0
20260510141941 12 18 6.4 11.3 0.00 0.05 0.05 46 1016.3
20260510141438 12 64 9.7 14.5 0.00 0.05 0.05 50 1016.3
20260510140935 11 23 3.2 16.1 0.00 0.05 0.05 48 1016.3
20260510140431 11 97 4.8 14.5 0.00 0.05 0.05 49 1016.4
20260510135930 11 346 8.0 8.0 0.00 0.05 0.05 51 1016.4
20260510135426 11 51 6.4 9.7 0.00 0.05 0.05 51 1016.3
20260510134924 11 72 4.8 11.3 0.00 0.05 0.05 52 1016.4
20260510134420 10 14 4.8 8.0 0.00 0.05 0.05 51 1016.3
20260510133916 10 74 11.3 14.5 0.00 0.05 0.05 52 1016.3
20260510133413 10 4 6.4 9.7 0.00 0.05 0.05 57 1016.2
20260510132908 10 24 4.8 11.3 0.00 0.05 0.05 58 1016.1
20260510132407 10 24 6.4 16.1 0.00 0.05 0.05 57 1016.1
20260510131903 10 60 6.4 12.9 0.00 0.05 0.05 57 1015.9
20260510131401 10 72 6.4 9.7 0.00 0.05 0.05 59 1015.9
20260510130857 10 43 0.0 14.5 0.00 0.05 0.05 63 1015.9
20260510130354 10 356 3.2 14.5 0.00 0.05 0.05 63 1015.9
20260510125851 10 86 8.0 14.5 0.00 0.05 0.05 63 1015.7
20260510125347 10 355 3.2 11.3 0.00 0.05 0.05 66 1015.7
20260510124844 10 296 6.4 12.9 0.00 0.05 0.05 67 1015.4
20260510124340 10 15 3.2 14.5 0.00 0.05 0.05 66 1015.4
20260510123836 10 47 8.0 14.5 0.00 0.05 0.05 67 1015.4
20260510123332 9 348 6.4 16.1 0.00 0.05 0.05 68 1015.5
20260510122829 9 60 4.8 9.7 0.00 0.05 0.05 67 1015.3
20260510122324 9 51 4.8 8.0 0.00 0.05 0.05 68 1015.1
20260510121821 10 13 4.8 9.7 0.00 0.05 0.05 67 1015.0
20260510121319 9 78 1.6 11.3 0.00 0.05 0.05 68 1015.1
20260510120816 9 359 4.8 12.9 0.00 0.05 0.05 66 1014.9
20260510120312 9 337 4.8 9.7 0.00 0.05 0.05 69 1015.1
20260510115808 9 78 3.2 4.8 0.00 0.05 0.05 72 1014.9
20260510115307 8 357 9.7 14.5 0.00 0.05 0.05 70 1014.8
20260510114801 8 56 6.4 11.3 0.00 0.05 0.05 70 1014.7
20260510114259 8 349 6.4 12.9 0.00 0.05 0.05 69 1014.7
20260510113753 8 67 6.4 14.5 0.00 0.05 0.05 70 1014.2
20260510113251 8 335 8.0 19.3 0.00 0.05 0.05 70 1014.2
20260510112747 8 33 4.8 8.0 0.00 0.05 0.05 73 1014.0
20260510112244 8 53 4.8 8.0 0.00 0.05 0.05 76 1014.2
20260510111740 8 354 11.3 11.3 0.00 0.05 0.05 76 1014.0
20260510111237 8 30 4.8 6.4 0.00 0.05 0.05 76 1014.0
20260510110736 8 3 8.0 8.0 0.00 0.05 0.05 76 1013.9
20260510110235 8 36 4.8 11.3 0.00 0.05 0.05 76 1013.6
20260510105734 8 260 0.0 11.3 0.00 0.05 0.05 76 1013.3
20260510105229 8 60 6.4 9.7 0.00 0.05 0.05 78 1013.3
20260510104726 8 19 3.2 8.0 0.00 0.05 0.05 78 1013.2
20260510104224 8 39 0.0 4.8 0.00 0.05 0.05 78 1013.0
20260510103720 8 70 4.8 14.5 0.00 0.05 0.05 78 1012.7
20260510103217 8 97 1.6 11.3 0.00 0.05 0.05 77 1012.9
20260510102717 8 53 6.4 11.3 0.00 0.05 0.05 77 1012.8
20260510102212 8 130 3.2 8.0 0.00 0.05 0.05 78 1012.5
20260510101710 8 72 1.6 9.7 0.00 0.05 0.05 79 1012.4
20260510101209 8 55 8.0 8.0 0.00 0.05 0.05 79 1012.3
20260510100704 8 348 3.2 8.0 0.00 0.05 0.05 79 1012.3
20260510100202 8 46 3.2 6.4 0.00 0.05 0.05 80 1012.3
20260510095657 8 327 4.8 6.4 0.00 0.05 0.05 81 1012.2
20260510095153 8 32 3.2 4.8 0.00 0.05 0.05 82 1012.2
20260510094651 8 5 1.6 3.2 0.00 0.05 0.05 83 1012.2
20260510094148 8 359 1.6 3.2 0.00 0.05 0.05 83 1012.0
20260510093643 8 48 4.8 4.8 0.00 0.05 0.05 83 1012.1
20260510093141 8 347 1.6 4.8 0.00 0.05 0.05 84 1012.1
20260510092637 8 17 1.6 4.8 0.00 0.05 0.05 86 1011.8
20260510092133 8 25 1.6 4.8 0.00 0.05 0.05 88 1011.8
20260510091629 8 20 3.2 3.2 0.00 0.05 0.05 90 1011.7
20260510091125 7 8 3.2 6.4 0.00 0.05 0.05 91 1011.6
20260510090622 7 8 1.6 3.2 0.00 0.05 0.05 91 1011.5
20260510090119 7 15 3.2 4.8 0.00 0.05 0.05 91 1011.4
20260510085614 7 49 0.0 3.2 0.00 0.05 0.05 91 1011.3
20260510085109 7 50 0.0 1.6 0.00 0.05 0.05 91 1011.3
20260510084606 7 116 0.0 1.6 0.00 0.05 0.05 91 1011.2
20260510084103 7 189 1.6 3.2 0.00 0.05 0.05 91 1011.2
20260510083559 7 44 0.0 1.6 0.00 0.05 0.05 90 1011.0
20260510083055 7 240 0.0 1.6 0.00 0.05 0.05 90 1011.2
20260510082552 7 166 0.0 1.6 0.00 0.05 0.05 90 1010.9
20260510082048 8 129 0.0 3.2 0.00 0.05 0.05 90 1010.7
20260510081543 8 170 0.0 3.2 0.00 0.05 0.05 90 1010.9
20260510081039 8 131 0.0 1.6 0.00 0.05 0.05 89 1010.7
20260510080538 8 157 0.0 0.0 0.00 0.05 0.05 88 1010.7
20260510080035 8 157 0.0 3.2 0.00 0.05 0.05 88 1010.7
20260510075532 7 178 0.0 3.2 0.00 0.05 0.05 86 1010.5
20260510075029 7 135 0.0 0.0 0.00 0.05 0.05 85 1010.3
20260510074527 8 212 0.0 1.6 0.00 0.05 0.05 85 1010.2
20260510074022 8 326 0.0 0.0 0.00 0.05 0.05 83 1010.2
20260510073518 8 326 0.0 0.0 0.00 0.05 0.05 82 1009.9
20260510073015 8 104 0.0 0.0 0.00 0.05 0.05 81 1010.0
20260510072512 8 126 0.0 1.6 0.00 0.05 0.05 81 1009.9
20260510072007 8 288 0.0 1.6 0.00 0.05 0.05 81 1009.8
20260510071504 8 55 0.0 3.2 0.00 0.05 0.05 80 1009.8
20260510071002 8 89 0.0 4.8 0.00 0.05 0.05 80 1009.6
20260510070459 9 127 0.0 3.2 0.00 0.05 0.05 79 1009.7
20260510065954 9 6 0.0 4.8 0.00 0.05 0.05 78 1009.5
20260510065452 9 333 1.6 3.2 0.00 0.05 0.05 78 1009.8
20260510064948 9 237 0.0 3.2 0.00 0.05 0.05 77 1009.6
20260510064445 10 55 3.2 4.8 0.00 0.05 0.05 75 1009.6
20260510063942 10 66 0.0 6.4 0.00 0.05 0.05 73 1009.6
20260510063438 10 1 3.2 8.0 0.00 0.05 0.05 73 1009.6
20260510062936 10 7 3.2 4.8 0.00 0.05 0.05 74 1009.5
20260510062430 10 346 1.6 9.7 0.00 0.05 0.05 74 1009.3
20260510061926 10 89 0.0 4.8 0.00 0.05 0.05 72 1009.3
20260510061423 10 38 3.2 8.0 0.00 0.05 0.05 72 1009.5
20260510060919 10 129 1.6 6.4 0.00 0.05 0.05 72 1009.3
20260510060416 11 88 6.4 11.3 0.00 0.05 0.05 72 1009.4
20260510055912 11 79 4.8 8.0 0.00 0.05 0.05 72 1009.2
20260510055408 11 50 9.7 12.9 0.00 0.05 0.05 73 1009.1
20260510054906 11 84 6.4 14.5 0.00 0.05 0.05 74 1008.8
20260510054402 11 55 4.8 9.7 0.00 0.05 0.05 74 1008.9
20260510053857 11 30 8.0 20.9 0.00 0.05 0.05 74 1009.0
20260510053353 11 2 6.4 14.5 0.00 0.05 0.05 74 1008.9
20260510052849 11 50 11.3 20.9 0.00 0.05 0.05 75 1008.8
20260510052345 11 350 6.4 8.0 0.00 0.05 0.05 79 1008.4
20260510051841 12 2 6.4 20.9 0.00 0.05 0.05 82 1008.4
20260510051338 13 62 4.8 11.3 0.00 0.05 0.05 84 1008.0
20260510050835 14 27 6.4 9.7 0.00 0.05 0.05 83 1007.7
20260510050331 14 241 1.6 3.2 0.00 0.05 0.05 81 1007.4
20260510045829 14 224 0.0 4.8 0.00 0.05 0.05 80 1007.3
20260510045325 15 226 3.2 4.8 0.00 0.05 0.05 79 1007.3
20260510044823 15 235 6.4 11.3 0.00 0.05 0.05 78 1007.3
20260510044319 15 232 6.4 16.1 0.00 0.05 0.05 78 1007.2
20260510043816 14 236 3.2 12.9 0.00 0.05 0.05 82 1007.0
20260510043312 13 236 3.2 4.8 0.05 0.05 0.05 86 1006.6
20260510042810 14 201 3.2 6.4 0.23 0.05 0.05 83 1006.4
20260510042307 15 35 6.4 12.9 0.13 0.03 0.03 82 1007.0
20260510041801 15 346 4.8 8.0 0.00 0.00 0.00 82 1006.5
20260510041300 13 130 1.6 6.4 0.00 0.00 0.00 84 1006.4
20260510040757 14 159 0.0 4.8 0.00 0.00 0.00 83 1006.2
20260510040253 14 89 0.0 3.2 0.00 0.00 0.00 82 1006.2
20260510035749 14 295 0.0 3.2 0.00 0.76 0.76 82 1006.0
20260510035245 14 230 1.6 8.0 0.00 0.76 0.76 83 1006.1
20260510034740 13 142 0.0 4.8 0.00 0.76 0.76 86 1005.9
20260510034239 13 147 0.0 1.6 0.00 0.76 0.76 86 1005.9
20260510033734 13 166 0.0 4.8 0.00 0.76 0.76 85 1005.9
20260510033232 13 142 1.6 4.8 0.00 0.76 0.76 85 1005.8
20260510032728 13 58 0.0 3.2 0.00 0.76 0.76 84 1005.8
20260510032224 14 89 0.0 4.8 0.00 0.76 0.76 83 1005.7
20260510031719 14 191 0.0 1.6 0.00 0.76 0.76 82 1006.0
20260510031216 15 234 1.6 6.4 0.00 0.76 0.76 82 1005.9
20260510030715 14 183 1.6 9.7 0.00 0.76 0.76 83 1005.9
20260510030213 14 318 0.0 3.2 0.00 0.76 0.76 83 1005.9
20260510025710 14 208 3.2 6.4 0.00 0.76 0.76 82 1005.9
20260510025207 14 206 3.2 8.0 0.00 0.76 0.76 83 1006.0
20260510024704 14 218 0.0 4.8 0.00 0.76 0.76 83 1006.0
20260510024201 13 149 0.0 8.0 0.00 0.76 0.76 85 1006.1
20260510023656 13 230 0.0 6.4 0.00 0.76 0.76 86 1005.9
20260510023154 13 332 0.0 3.2 0.00 0.76 0.76 86 1005.7
20260510022649 13 216 3.2 4.8 0.00 0.76 0.76 86 1005.6
20260510022144 13 225 4.8 4.8 0.00 0.76 0.76 87 1005.8
20260510021640 13 187 0.0 6.4 0.00 0.76 0.76 87 1005.6
20260510021137 13 203 1.6 6.4 0.00 0.76 0.76 87 1005.7
20260510020631 13 198 3.2 20.9 0.00 0.76 0.76 88 1005.8
20260510020127 13 179 0.0 8.0 0.00 0.76 0.76 90 1005.9
20260510015623 13 222 3.2 4.8 0.00 0.76 0.76 92 1005.9
20260510015119 12 166 0.0 3.2 0.00 0.76 0.76 92 1005.3
20260510014615 12 117 0.0 3.2 0.00 0.76 0.76 92 1005.3
20260510014113 12 166 1.6 1.6 0.00 0.76 0.76 92 1005.3
20260510013608 12 117 0.0 1.6 0.00 0.76 0.76 92 1005.1
20260510013104 12 205 0.0 1.6 0.00 0.76 0.76 92 1005.1
20260510012603 12 152 0.0 3.2 0.00 0.76 0.76 92 1005.0
20260510012100 12 26 0.0 4.8 0.00 0.76 0.76 91 1005.2
20260510011559 12 138 0.0 3.2 0.00 0.76 0.76 91 1005.0
20260510011056 12 180 0.0 3.2 0.00 0.76 0.76 91 1005.1
20260510010552 12 76 0.0 3.2 0.00 0.76 0.76 90 1005.2
20260510010049 12 159 0.0 3.2 0.00 0.76 0.76 90 1005.0
20260510005550 13 172 1.6 3.2 0.00 0.76 0.76 90 1004.9
20260510005048 13 154 1.6 8.0 0.00 0.76 0.76 89 1005.1
20260510004545 13 130 0.0 4.8 0.00 0.76 0.76 89 1005.0
20260510004043 13 166 0.0 8.0 0.00 0.76 0.76 88 1005.0
20260510003540 13 237 0.0 4.8 0.00 0.76 0.76 88 1005.0
20260510003036 13 170 1.6 4.8 0.00 0.76 0.76 88 1004.9
20260510002531 13 142 0.0 3.2 0.00 0.76 0.76 88 1004.9
20260510002028 13 216 3.2 6.4 0.00 0.76 0.76 88 1005.0
20260510001526 13 198 3.2 4.8 0.00 0.76 0.76 88 1004.9
20260510001024 13 144 0.0 8.0 0.00 0.76 0.76 88 1005.0
20260510000519 14 184 4.8 6.4 0.00 0.76 0.76 89 1005.0
20260510000016 14 208 1.6 4.8 0.00 0.76 0.76 89 1004.9
20260509235513 14 193 1.6 6.4 0.00 0.76 0.76 90 1004.9
20260509235009 14 201 4.8 11.3 0.00 0.76 0.76 90 1004.9
20260509234506 14 224 4.8 6.4 0.00 0.76 0.76 90 1004.8
20260509234004 14 208 3.2 6.4 0.00 0.76 0.76 90 1004.6
20260509233500 14 222 4.8 6.4 0.00 0.76 0.76 91 1004.7
20260509232956 14 243 0.0 4.8 0.00 0.76 0.76 91 1004.5
20260509232454 13 213 3.2 6.4 0.00 0.76 0.76 92 1004.4
20260509231949 13 223 4.8 14.5 0.00 0.76 0.76 92 1004.6
20260509231447 13 231 1.6 6.4 0.00 0.76 0.76 93 1004.5
20260509230945 13 122 4.8 8.0 0.00 0.76 0.76 93 1004.3
20260509230442 13 168 1.6 4.8 0.30 0.76 0.76 93 1004.4
20260509225938 13 213 4.8 8.0 0.36 0.74 0.74 93 1004.6
20260509225434 13 193 6.4 16.1 0.13 0.71 0.71 93 1004.7
20260509224930 13 219 8.0 9.7 0.05 0.69 0.69 93 1005.1
20260509224426 13 192 6.4 14.5 0.05 0.69 0.69 93 1004.5
20260509223923 13 223 11.3 17.7 0.05 0.66 0.66 93 1004.7
20260509223420 13 186 8.0 16.1 1.14 0.66 0.66 92 1004.7
20260509222918 13 228 6.4 22.5 2.16 0.64 0.64 91 1004.6
20260509222412 13 211 11.3 27.4 2.64 0.46 0.46 86 1004.6
20260509221908 15 324 3.2 24.1 1.55 0.25 0.25 79 1005.0
20260509221405 20 2 6.4 14.5 0.00 0.00 0.00 61 1003.6
20260509220900 20 209 4.8 16.1 0.00 0.00 0.00 55 1002.4
20260509220356 20 222 4.8 9.7 0.00 0.00 0.00 56 1002.1
20260509215853 20 307 4.8 9.7 0.00 0.00 0.00 57 1002.2
20260509215349 20 244 0.0 8.0 0.00 0.00 0.00 55 1002.3
20260509214847 21 145 1.6 9.7 0.00 0.00 0.00 56 1002.2
20260509214344 21 41 6.4 16.1 0.00 0.00 0.00 55 1002.0
20260509213841 21 210 8.0 16.1 0.00 0.00 0.00 55 1002.2
20260509213336 21 160 3.2 12.9 0.00 0.00 0.00 56 1002.0
20260509212834 21 213 6.4 8.0 0.00 0.00 0.00 54 1002.0
20260509212331 22 204 3.2 20.9 0.00 0.00 0.00 53 1002.0
20260509211827 22 180 3.2 19.3 0.00 0.00 0.00 52 1001.9
20260509211323 21 254 8.0 32.2 0.00 0.00 0.00 51 1002.0
20260509210820 22 115 6.4 35.4 0.00 0.00 0.00 52 1002.1
20260509210317 22 252 9.7 17.7 0.00 0.00 0.00 52 1002.0
20260509205818 22 174 11.3 14.5 0.00 0.00 0.00 50 1001.9
20260509205312 22 183 6.4 11.3 0.00 0.00 0.00 52 1002.2
20260509204808 22 206 4.8 19.3 0.00 0.00 0.00 51 1002.2
20260509204304 22 265 3.2 16.1 0.00 0.00 0.00 54 1002.2
20260509203801 22 212 8.0 22.5 0.00 0.00 0.00 52 1002.3
20260509203258 22 98 4.8 20.9 0.00 0.00 0.00 55 1002.6
20260509202754 22 164 3.2 11.3 0.00 0.00 0.00 53 1002.7
20260509202250 22 149 8.0 22.5 0.00 0.00 0.00 54 1002.6
20260509201749 22 184 4.8 20.9 0.00 0.00 0.00 53 1002.7
20260509201247 21 257 8.0 19.3 0.00 0.00 0.00 57 1002.9
20260509200743 21 212 11.3 19.3 0.00 0.00 0.00 53 1002.9
20260509200238 22 237 4.8 17.7 0.00 0.00 0.00 53 1003.1
20260509195735 21 223 8.0 11.3 0.00 0.00 0.00 54 1003.1
20260509195230 22 239 8.0 19.3 0.00 0.00 0.00 55 1003.3
20260509194730 22 210 6.4 12.9 0.00 0.00 0.00 55 1003.2
20260509194226 21 111 3.2 14.5 0.00 0.00 0.00 57 1003.4
20260509193724 22 220 3.2 12.9 0.00 0.00 0.00 52 1003.4
20260509193218 22 194 3.2 14.5 0.00 0.00 0.00 56 1003.5
20260509192715 21 223 3.2 9.7 0.00 0.00 0.00 58 1003.5
20260509192209 22 207 4.8 11.3 0.00 0.00 0.00 54 1003.7
20260509191705 21 347 3.2 9.7 0.00 0.00 0.00 59 1003.7
20260509191202 21 78 4.8 14.5 0.00 0.00 0.00 58 1003.9